Regional Weather Roundup
Issued by NWS

Home | Current Version | Previous Version | Text Only | Print | Product List | Glossary On
Versions: 1 2 3 4 5 6 7 8 9 10 11 12 13 14 15 16 17 18 19 20 21 22 23 24 25 26 27 28 29 30 31 32 33 34 35 36 37 38 39 40 41 42 43 44 45 46 47 48 49 50
000
ASUS45 KPSR 280610
RWRAZ

ARIZONA REGIONAL HOURLY WEATHER ROUNDUP
NATIONAL WEATHER SERVICE PHOENIX AZ
1100 PM MST FRI FEB 27 2015

NOTE: FAIR INDICATES FEW OR NO CLOUDS BELOW 12,000 FEET WITH NO
SIGNIFICANT WEATHER AND/OR OBSTRUCTIONS TO VISIBILITY.

AZZ001>003-036-280700-
NORTHWEST ARIZONA

CITY           SKY/WX    TMP DP  RH WIND       PRES   REMARKS
BULLHEAD CITY  CLEAR     66  36  32 SW9       29.59S
KINGMAN        PTCLDY    53  33  46 S13       29.61F
6HR MIN TEMP:  47; 6HR MAX TEMP:  60;

$$

AZZ004>008-015-016-018-280700-
NORTH CENTRAL ARIZONA

CITY           SKY/WX    TMP DP  RH WIND       PRES   REMARKS
GRAND CANYON   CLOUDY    31  30  96 CALM      29.72F
6HR MIN TEMP:  31; 6HR MAX TEMP:  38; 6HR PCP: TRACE;

PRESCOTT       PTCLDY    39  28  64 S6        29.73S WCI  35
6HR MIN TEMP:  39; 6HR MAX TEMP:  53;

FLAGSTAFF      CLOUDY    37  26  64 SW8       29.74F WCI  31
6HR MIN TEMP:  36; 6HR MAX TEMP:  39; 6HR PCP: TRACE;

PAYSON         CLOUDY    46  37  71 SW5       29.78S
PAGE           CLOUDY    39  35  86 SE3       29.73S
6HR MIN TEMP:  39; 6HR MAX TEMP:  42; 6HR PCP:  0.01;

$$

AZZ009>014-017-280700-
NORTHEAST ARIZONA

CITY           SKY/WX    TMP DP  RH WIND       PRES   REMARKS
WINSLOW        MOCLDY    38  34  85 S5        29.74R WCI  34
6HR MIN TEMP:  37; 6HR MAX TEMP:  49;

SAINT JOHNS    CLOUDY    40  26  57 SW5       29.75S
6HR MIN TEMP:  38; 6HR MAX TEMP:  50;

WINDOW ROCK    CLOUDY    32  30  92 CALM      29.77S
6HR MIN TEMP:  30; 6HR MAX TEMP:  35; 6HR PCP:  0.02;

SHOW LOW       PTCLDY    39  25  56 SW10      29.78F WCI  32
$$

AZZ023-280700-
GREATER PHOENIX AREA

CITY           SKY/WX    TMP DP  RH WIND       PRES   REMARKS
PHOENIX        PTCLDY    66  38  35 SW8       29.67S
6HR MIN TEMP:  65; 6HR MAX TEMP:  76;

BUCKEYE        MOCLDY    61  41  48 SW14      29.70R
LUKE AFB       CLEAR     61  40  46 SW10      29.67S
6HR MIN TEMP:  61; 6HR MAX TEMP:  75;

DEER VALLEY    CLEAR     62  38  40 SW8       29.69R
6HR MIN TEMP:  62; 6HR MAX TEMP:  72;

SCOTTSDALE     CLEAR     65  36  34 SW8       29.70R
6HR MIN TEMP:  65; 6HR MAX TEMP:  74;

MESA-GATEWAY   PTCLDY    61  37  41 SW12      29.73R
$$

AZZ027-028-280700-
SOUTHWEST MARICOPA COUNTY AND PINAL COUNTY

CITY           SKY/WX    TMP DP  RH WIND       PRES   REMARKS
CASA GRANDE    CLEAR     61  36  39 S15       29.72S
6HR MIN TEMP:  57; 6HR MAX TEMP:  75;

GILA BEND      FAIR      64  42  45 S13       29.69F
6HR MIN TEMP:  64; 6HR MAX TEMP:  74;

$$

AZZ503-504-507>509-280700-
SOUTHEAST ARIZONA

CITY           SKY/WX    TMP DP  RH WIND       PRES   REMARKS
TUCSON         CLEAR     61  36  39 SW7       29.80R
6HR MIN TEMP:  61; 6HR MAX TEMP:  73;

DAVIS-MONTHAN  CLEAR     61  37  40 SW8G18    29.78R
6HR MIN TEMP:  61; 6HR MAX TEMP:  72;

NOGALES        PTCLDY    55  38  52 S14G24    29.85R
6HR MIN TEMP:  54; 6HR MAX TEMP:  68;

SIERRA VISTA   MOCLDY    54  34  47 S12G24    29.83R
DOUGLAS        CLEAR     54  38  54 S12       29.84S
6HR MIN TEMP:  54; 6HR MAX TEMP:  67;

SAFFORD        MOCLDY    56  30  37 CALM      29.75R
6HR MIN TEMP:  55; 6HR MAX TEMP:  69;

$$

AZZ020-021-025-026-031-280700-
SOUTHWEST ARIZONA

CITY           SKY/WX    TMP DP  RH WIND       PRES   REMARKS
YUMA           MOCLDY    64  43  46 W5        29.69S
6HR MIN TEMP:  64; 6HR MAX TEMP:  77;

$$

CAZ031-033-041-043-047-048-061-280700-
SOUTHERN CALIFORNIA

CITY           SKY/WX    TMP DP  RH WIND       PRES   REMARKS
DOWNTOWN L.A.  CLEAR     59  51  75 VRB3      29.76S
6HR MIN TEMP:  59; 6HR MAX TEMP:  64;

L.A. AIRPORT   PTCLDY    58  50  75 W20       29.77R
6HR MIN TEMP:  58; 6HR MAX TEMP:  61;

SAN DIEGO      MOCLDY    62  51  67 SW9       29.84R
6HR MIN TEMP:  61; 6HR MAX TEMP:  64; 6HR PCP: TRACE;

BURBANK        MOCLDY    58  50  75 SE7       29.75S
6HR MIN TEMP:  57; 6HR MAX TEMP:  61;

ONTARIO        CLOUDY    56  50  80 SW7       29.77S
6HR MIN TEMP:  56; 6HR MAX TEMP:  60; 6HR PCP: TRACE;

RIVERSIDE      CLOUDY    58  50  75 W9        29.77S
6HR MIN TEMP:  57; 6HR MAX TEMP:  62;

PALM SPRINGS   PTCLDY    65  42  43 SE8       29.65S
6HR MIN TEMP:  65; 6HR MAX TEMP:  73;

EL CENTRO NAS  CLEAR     65  44  46 SW26      29.70R
6HR MIN TEMP:  65; 6HR MAX TEMP:  77;

IMPERIAL       CLEAR     64  45  49 W23G29    29.68S
6HR MIN TEMP:  64; 6HR MAX TEMP:  75;

BLYTHE         PTCLDY    64  44  48 SW16      29.63R
6HR MIN TEMP:  64; 6HR MAX TEMP:  77;

NEEDLES        CLEAR     66  34  30 W13       29.60R
6HR MIN TEMP:  65; 6HR MAX TEMP:  75;

$$

NVZ020-UTZ003-280700-
SOUTHERN NEVADA-UTAH

CITY           SKY/WX    TMP DP  RH WIND       PRES   REMARKS
LAS VEGAS      PTCLDY    58  36  43 S15       29.51F
6HR MIN TEMP:  58; 6HR MAX TEMP:  65;

SALT LAKE CITY PTCLDY    33  24  69 S8        29.69F WCI  26
6HR MIN TEMP:  33; 6HR MAX TEMP:  43;

$$

NMZ009-TXZ055-280700-
NEW MEXICO-WEST TEXAS

CITY           SKY/WX    TMP DP  RH WIND       PRES   REMARKS
ALBUQUERQUE    LGT SNOW  21  19  92 N9        29.91F VSB 3/4 WCI  11
6HR MIN TEMP:  21; 6HR MAX TEMP:  25; 6HR PCP:  0.17;

EL PASO        PTCLDY    30  21  69 NE8       29.96R WCI  22
6HR MIN TEMP:  30; 6HR MAX TEMP:  44;

$$


........................KEY........................
SKY/WX - SKY CONDITION/WEATHER
TMP    - TEMPERATURE IN FAHRENHEIT
DP     - DEW POINT IN FAHRENHEIT
RH     - RELATIVE HUMIDITY IN PERCENT
WIND   - DIRECTION AND SPEED IN MILES PER HOUR (MPH)
VRB    - VARIABLE WIND DIRECTION
PRES   - MEAN SEA LEVEL PRESSURE IN INCHES OF MERCURY
         F - FALLING PRESSURE   R - RISING PRESSURE
         S - STEADY PRESSURE
VSB    - VISIBILITY IN MILES
HX     - HEAT INDEX IN FAHRENHEIT
WCI    - WIND CHILL INDEX IN FAHRENHEIT
TC     - TEMPERATURE IN CELSIUS WHICH IS ALSO KNOWN AS
         TEMPERATURE IN CENTIGRADE
AFB    - AIR FORCE BASE
         LUKE AFB IS LUKE AIR FORCE BASE
         DAVIS-MONTHAN IS DAVIS-MONTHAN AIR FORCE BASE
NAS    - NAVAL AIR STATION
         EL CENTRO NAS IS EL CENTRO NAVAL AIR STATION
N/A    - NOT AVAILABLE


USA.gov is the U.S. government's official web portal to all federal, state and local government web resources and services.